Home   Weather   Copenhagen   Past weeks
Flag for Canada

Past Weather in Copenhagen, Ontario, Canada — Yesterday and Last 2 Weeks

Now
79 °F

Partly sunny.


Feels Like: 80 °F
Forecast: 79 / 53 °F
Wind: 8 mph from Southwest

Location: London Weather Station

Current Time: Jul 15, 2019 at 2:20:28 pm

Latest Report: Jul 15, 2019 at 1:00 pm


Visibility: 15 mi

Pressure: 30.12 "Hg

Humidity: 48%

Dew Point: 57 °F

Location of CopenhagenLocation

Past Weather in Copenhagen — Graph

°F

Copenhagen Temperature Yesterday

Maximum temperature yesterday: 79 °F (at 3:00 pm)
Minimum temperature yesterday: 57 °F (at 6:00 am)
Average temperature yesterday: 68 °F

High & Low Weather Summary for the Past Weeks

 TemperatureHumidityPressure
High91 °F (Jul 5, 4:00 pm)100% (Jul 1, 2:00 am)30.15 "Hg (Jul 1, 2:00 am)
Low50 °F (Jul 15, 5:00 am)39% (Jul 8, 4:00 pm)29.78 "Hg (Jul 11, 4:00 pm)
Average72 °F76%29.97 "Hg
* Reported Jun 30 1:00 pm — Jul 15 1:00 pm, Copenhagen. Weather by CustomWeather, © 2019

Note: Actual official high and low records may vary slightly from our data, if they occured in-between our weather recording intervals... More about our weather records

Advertising

Copenhagen Weather History for the Previous 24 Hours

Scroll right to see more
 ConditionsComfort  
Time TempWeatherWind HumidityBarometerVisibility
1:00 pm
Mon, Jul 15
79 °FPartly sunny.8 mph48%30.12 "Hg15 mi
12:00 pm79 °FScattered clouds.8 mph45%30.12 "Hg15 mi
11:00 am75 °FPassing clouds.2 mph47%30.13 "Hg15 mi
10:00 am72 °FPartly sunny.3 mph61%30.15 "Hg15 mi
9:00 am68 °FScattered clouds.5 mph64%30.14 "Hg15 mi
8:00 am59 °FScattered clouds.2 mph88%30.15 "Hg15 mi
7:00 am52 °FScattered clouds.No wind94%30.14 "Hg15 mi
6:00 am50 °FPassing clouds.2 mph94%30.13 "Hg15 mi
5:00 am50 °FPassing clouds.No wind94%30.11 "Hg15 mi
4:00 am52 °FPassing clouds.No wind94%30.11 "Hg15 mi
3:00 am54 °FClear.No wind94%30.11 "Hg15 mi
2:00 am54 °FClear.No wind94%30.13 "Hg15 mi
1:00 am55 °FPassing clouds.No wind88%30.12 "Hg15 mi
12:00 am59 °FPassing clouds.No wind77%30.12 "Hg15 mi
11:00 pm
Sun, Jul 14
63 °FClear.6 mph68%30.13 "Hg15 mi
10:00 pm64 °FPassing clouds.3 mph64%30.12 "Hg15 mi
9:00 pm68 °FPassing clouds.5 mph56%30.11 "Hg15 mi
8:00 pm72 °FPassing clouds.8 mph50%30.11 "Hg15 mi
7:00 pm75 °FScattered clouds.8 mph47%30.11 "Hg15 mi
6:00 pm77 °FScattered clouds.9 mph44%30.11 "Hg15 mi
5:00 pm77 °FScattered clouds.8 mph44%30.11 "Hg15 mi
4:00 pm77 °FScattered clouds.13 mph47%30.11 "Hg15 mi
3:00 pm79 °FScattered clouds.10 mph48%30.10 "Hg15 mi
2:00 pm77 °FPassing clouds.12 mph51%30.11 "Hg15 mi
Weather by CustomWeather, © 2019

See weather overview